Weather Roundup
Issued by NWS Chicago, IL

Home | Current Version | Previous Version | Graphics & Text | Print | Product List | Glossary On
Versions: 1 2 3 4 5 6 7 8 9 10 11 12 13 14 15 16 17 18 19 20 21 22 23 24 25 26 27 28 29 30 31 32 33 34 35 36 37 38 39 40 41 42 43 44 45 46 47 48 49 50
000
NZUS59 KLOT 281800
HRRLOT

CHICAGO AREA WEATHER ROUNDUP
NATIONAL WEATHER SERVICE CHICAGO/ROMEOVILLE IL
1200 PM CST SAT FEB 28 2015

NOTE: "FAIR" INDICATES FEW OR NO CLOUDS BELOW 12,000 FEET WITH NO
SIGNIFICANT WEATHER AND/OR OBSTRUCTIONS TO VISIBILITY.

* THESE STATIONS ARE NOT UNDER NWS QUALITY CONTROL. THEY ALSO MAY NOT
  REPORT WEATHER SUCH AS PRECIPITATION OR FOG.

ILZ005-006-012>014-019>023-281900-
NORTHEAST ILLINOIS

CITY           SKY/WX    TMP DP  RH WIND       PRES   REMARKS
OHARE          SUNNY     17   2  51 SE8       30.67F WCI   7
6HR MIN TEMP:  -8; 6HR MAX TEMP:  17;

MIDWAY         MOSUNNY   19   1  45 S8        30.68F WCI   9
6HR MIN TEMP:   1; 6HR MAX TEMP:  19;

AURORA         SUNNY     16   1  51 SE12      30.67F WCI   3
6HR MIN TEMP: -15; 6HR MAX TEMP:  16;

LANSING*       CLOUDY    17   2  50 SE6       30.69F WCI   9
WAUKEGAN       SUNNY     16   0  49 S12       30.67F WCI   3
6HR MIN TEMP:  -8; 6HR MAX TEMP:  16;

DUPAGE AIRPORT SUNNY     16   1  51 S12       30.66F WCI   3
6HR MIN TEMP: -12; 6HR MAX TEMP:  16;

WHEELING       SUNNY     16  -1  47 S6        30.70F WCI   7
6HR MIN TEMP: -12; 6HR MAX TEMP:  16;

NORTHERLY IS     N/A     19   5  54 SE8         N/A  WCI   9
$$

WIZ051-052-058>065-066-070>072-281900-
SOUTHEAST WISCONSIN

CITY           SKY/WX    TMP DP  RH WIND       PRES   REMARKS
MILWAUKEE      MOSUNNY   14  -5  42 SW12      30.67F WCI   0
6HR MIN TEMP:  -5; 6HR MAX TEMP:  14;

KENOSHA*       SUNNY     16  -1  47 SW6       30.67F WCI   7
RACINE*        SUNNY     14  -2  49 SW9       30.69F WCI   2
WAUKESHA       SUNNY     12  -4  48 SW6       30.65F WCI   3
$$

INZ001>003-010>013-019-020-281900-
NORTHWEST INDIANA

CITY           SKY/WX    TMP DP  RH WIND       PRES   REMARKS
GARY*          PTSUNNY   19  -4  35 SE10      30.70F WCI   8
MICHIGAN CITY* NOT AVBL
RENSSELAER*    NOT AVBL
$$

LMZ740>746-281900-
SOUTHERN LAKE MICHIGAN

STATION/POSITION TIME  SKY/WX   TEMP WIND        PRES    VSBY
                                AIR  DIR/SP/G
                 (UTC)          (F)  (DEG/KT/KT) (MB)    (MI)
HARRISON CRIB    1700            13  170/  8/ 12   N/A
BURNHAM HARBOR   1800            18  150/  6       N/A
CALUMET HARBOR   1700            17  140/  6/ 10 1038.4F
BURNS HARBOR     NOT AVBL
MICHIGAN CITY    1700            15  130/  7/  8   N/A
$$

ABBREVIATIONS USED IN REMARKS
   TC - TEMPERATURE IN CELSIUS
  WCI - WIND CHILL INDEX
   HX - HEAT INDEX
  VSB - VISIBILITY
$$


USA.gov is the U.S. government's official web portal to all federal, state and local government web resources and services.